Showing default

KUIPER-00458, 68950

Orbit data source: Space-Track

KUIPER-00458, 68950 is a payload satellite owned by Kuiper Systems (US) in LEO that was launched on Thu, 30 Apr 2026 UTC via an ARIANE 64 launch vehicle from the French Guiana (FRGUI). Payload-class satellites include a variety of spacecraft equipped with specific instruments for various scientific and technological missions. These include communications satellites like Starlink; space stations such as the ISS; scientific satellites like the Hubble; Earth observation satellites from companies like Planet Labs, Umbra, and HawkEye 360; GPS; miniature CubeSats for education and research; and military/defense satellites.

Loading next visibility...
Identifier
68950, 2026-098AH
Orbit
LEO
Country
Flag of USUS
Related business
Manufacturer
Kuiper Systems
Mission
Operational spacecraft
Bus & Motor
KUIPER, Unknown motor
Mass
~490 kg wet, ~490 kg dry
Launch date (UTC)
2026-04-30 (2 months ago)
Launch vehicle
ARIANE 64
Launch site
French Guiana (FRGUI)
Object type
Payload
Rocket body
Debris
Shape & HBR
Unknown shape, 3.4 m
Radar Cross Section
Large (>1 m²)

Expand to show TLE details & history
Last TLE update: 11 hours ago

TLE from 11 hours ago
0 KUIPER-00458
1 68950U 26098AH  26171.38907309  .00021256  00000-0  60311-3 0  9999
2 68950  51.8779  51.9796 0003292 174.0303 186.0723 15.36162815  7842
Epoch: 2026-06-20T09:20Z
TLE epoch observation values (Epoch: 2026-06-20T09:20:15.914Z)
Latitude
-0.00005°
Longitude
3.30885°
Altitude
460.469 km
Speed
7.637 km/s
True Right ascension
03h 27m 55s
True Declination
0° 00' 00"
Sunlit
Object was in daylight at epoch
Visualization orbit readout
Latitude
Unknown
Longitude
Unknown
Altitude
Unknown
Speed
Unknown
Apparent Right ascension
Unknown
Apparent Declination
Unknown
Sunlit
N/A
Visualization observer readout
Local Sidereal Time
07:18:53
Azimuth
Unknown
Elevation
Unknown
Doppler factor
Unknown
Orbital elements
Apogee altitude
460.185 km
Perigee altitude
455.684 km
Semi-major axis
6,836.072 km
Eccentricity
0.00033
Inclination
51.8779°
RAAN
51.9796°
Arg. of periapsis
174.0303°
True anomaly
186.06831°
Mean anomaly
186.0723°
Eccentric anomaly
186.07031°
Mean motion
3.84002 °/min
Orbital period
93.75 mins
BSTAR
0.00060311
Loading maneuver chart data...
Computing Atmospheric mass density...
Loading historical data...
Loading historical data...
Loading historical data...
Loading historical data...
Loading historical data...
Loading historical data...
Loading historical data...

Documentation

Showing up to 5 results
|